OBJECT D

Satellite information

Favourite Embed

Satellite Type and Status

UNKNOWNIN ORBIT

Key statistics

Satellite OBJECT D at a glance.

Uptime

556

Days in orbit

Revolutions

≈ 15.2

Per day

Orbit

SSO

Sun Synchronous Orbit

Inclination

97.6

Latest

Satellite identification and parameters

Extended collection of information and parameters for OBJECT D.

Object identification

Identified? True

Debris? False

Object name: OBJECT D

International designator: 2024-110D

Object number (NORAD): 60015

Object ID (CCSDS): 60015

Country: PEOPLES REPUBLIC OF CHINA (PRC)

Current information (Y/N): Y

RCS size: MEDIUM

Orbital parameters

Period: 94.681 minutes

Inclination: 97.5782 deg

SMA: 6881.28 km

Apoapsis: 510.647 km

Periapsis: 495.643 km

RAAN: 77.0473 deg

Eccentricy: 0.00109022

Argument of periapsis: 179.1099 deg

Mean anomaly: 181.0158 deg

Mean motion: 15.20893781 rev/day

Mean motion (dot): 0.00017146 rev/day2

B* drag term: 0.00077647192 1/REarth

Two-line elements (TLE)

Creation date: Dec. 12, 2025, 10:14 a.m.

Reference frame: TEME

Reference center: EARTH

Epoch: Dec. 12, 2025, 8:16 a.m. UTC

TLE line 0: 0 OBJECT D

TLE line 1: 1 60015U 24110D 25346.34466701 .00017146 00000-0 77647-3 0 9994

TLE line 2: 2 60015 97.5782 77.0473 0010902 179.1099 181.0158 15.20893781 83827

Live tracking on map

Real-time ground track for satellite OBJECT D.

In-orbit conjunctions

There are no conjunctions computed for OBJECT D, at the moment. Check back to stay up to date, as we update our databases every day.

Go to all conjunctions

Associated space launch

Carried 3 satellites to polar orbit, details TBD: * TEE-01B *Naxing-3A/B

OBJECT D was lifted into orbit during the mission ‘Ceres-1 | 3 satellites’, on board a Ceres-1 space rocket.

The launch took place on June 6, 2024, 5 a.m. from Launch Area 95A.

For more information about the launch, click the button.

Launch to space Ceres-1 | 3 satellites
Ceres-1 | 3 satellites

Agency: N/A

Status: Launch Successful

Launch date: June 6, 2024, 5 a.m. UTC

Rocket: Ceres-1

Launch pad: Launch Area 95A

Location: Jiuquan Satellite Launch Center, People's Republic of China

...

Latest news about this satellite

There are no fresh news available about this satellite. Check back as we update our databases every day.


Newsletter sign-up

Weekly statistics, charts and insights to help you stay on top of the space industry.